Location: *
(50.5492°N, 7.7469°E)
Time: 18:23:24
(UTC+00:00)

STARLINK-40 - Pass Details

Date: 21 October 2019
Orbit: 548 x 551 km, 53.0° (Epoch: 18 November)

Event Time Altitude Azimuth Distance (km) Brightness Sun altitude
Rises 18:14:25 0° 280° (W) 2,720 8.9 -17.9°
Reaches altitude 10° 18:16:40 10° 284° (WNW) 1,826 7.5 -18.3°
Maximum altitude 18:20:47 62° 6° (N) 621 3.8 -19.0°
Enters shadow 18:21:49 45° 63° (ENE) 757 3.9 -19.1°
